TimeMDT,TemperatureF,Dew PointF,Humidity,Sea Level PressureIn,VisibilityMPH,Wind Direction,Wind SpeedMPH,Gust SpeedMPH,PrecipitationIn,Events,Conditions,WindDirDegrees,DateUTC
12:53 AM,48.9,36.0,61,29.80,10.0,WSW,13.8,-,N/A,,Clear,250,2012-11-02 06:53:00
1:53 AM,48.9,35.1,59,29.79,10.0,West,11.5,-,N/A,,Clear,280,2012-11-02 07:53:00
2:53 AM,46.9,36.0,66,29.81,10.0,West,15.0,-,N/A,,Clear,270,2012-11-02 08:53:00
3:53 AM,46.9,36.0,66,29.81,10.0,West,12.7,-,N/A,,Clear,280,2012-11-02 09:53:00
4:53 AM,45.0,37.0,74,29.86,10.0,West,15.0,-,N/A,,Clear,280,2012-11-02 10:53:00
5:53 AM,46.0,35.1,66,29.89,10.0,WNW,15.0,-,N/A,,Clear,290,2012-11-02 11:53:00
6:53 AM,48.0,32.0,54,29.90,10.0,WNW,11.5,-,N/A,,Clear,300,2012-11-02 12:53:00
7:53 AM,46.9,32.0,56,29.91,10.0,WNW,12.7,-,N/A,,Clear,290,2012-11-02 13:53:00
8:53 AM,48.0,33.1,56,29.95,10.0,WNW,10.4,-,N/A,,Clear,290,2012-11-02 14:53:00
9:53 AM,53.1,30.9,43,29.97,10.0,WNW,9.2,-,N/A,,Clear,300,2012-11-02 15:53:00
10:53 AM,54.0,28.9,38,30.00,10.0,North,19.6,25.3,N/A,,Clear,350,2012-11-02 16:53:00
11:53 AM,52.0,30.9,45,30.01,10.0,North,16.1,-,N/A,,Clear,350,2012-11-02 17:53:00
12:53 PM,53.1,32.0,45,30.00,10.0,North,16.1,-,N/A,,Clear,360,2012-11-02 18:53:00
1:53 PM,55.0,33.1,43,29.99,10.0,NNE,13.8,-,N/A,,Clear,20,2012-11-02 19:53:00
2:53 PM,55.9,32.0,40,29.98,10.0,North,12.7,-,N/A,,Clear,10,2012-11-02 20:53:00
3:53 PM,55.0,32.0,42,29.99,10.0,NNE,12.7,-,N/A,,Clear,30,2012-11-02 21:53:00
4:53 PM,53.1,32.0,45,30.01,10.0,ENE,8.1,-,N/A,,Clear,70,2012-11-02 22:53:00
5:53 PM,50.0,33.1,52,30.04,10.0,ESE,4.6,-,N/A,,Clear,110,2012-11-02 23:53:00
6:53 PM,46.0,33.1,61,30.08,10.0,SE,6.9,-,N/A,,Clear,140,2012-11-03 00:53:00
7:53 PM,44.1,33.1,65,30.09,10.0,SSE,5.8,-,N/A,,Clear,160,2012-11-03 01:53:00
8:53 PM,43.0,32.0,65,30.11,10.0,SSE,4.6,-,N/A,,Clear,160,2012-11-03 02:53:00
9:53 PM,42.1,32.0,67,30.12,10.0,SSE,5.8,-,N/A,,Clear,160,2012-11-03 03:53:00
11:53 PM,39.9,30.9,70,30.15,10.0,South,4.6,-,N/A,,Clear,190,2012-11-03 05:53:00